Location: Wanzleben
(52.0609°N, 11.4408°E)
Time: 06:12:43
(UTC+00:00)

NOSS 8 (F) - Pass Details

Date: 18 September 2020
Orbit: 385 x 1787 km, 63.3° (Epoch: 21 October)

Event Time Altitude Azimuth Distance (km) Brightness Sun altitude
Rises 18:06:36 0° 217° (SW) 2,434 8.5 -7.7°
Reaches altitude 10° 18:08:46 10° 215° (SW) 1,481 7.3 -8.1°
Maximum altitude 18:11:52 65° 132° (SE) 433 4.1 -8.5°
Drops below altitude 10° 18:14:52 10° 50° (NE) 1,434 6.6 -9.0°
Sets 18:16:57 0° 48° (NE) 2,345 7.7 -9.3°
Enters shadow 18:16:57 - 48° (NE) 2,347 7.7 -9.3°
